Terminal Aerodrome Forecast
Issued by NWS Buffalo, NY

Home | Current Version | Previous Version | Text Only | Print | Product List | Glossary On
Versions: 1 2 3 4 5 6 7 8 9 10 11 12 13 14 15 16 17 18 19 20 21 22 23 24 25 26
428
FTUS41 KBUF 051019 AAC
TAFBUF
TAF AMD
KBUF 051019Z 0510/0606 03007KT 1/4SM FG OVC002
      TEMPO 0510/0512 1SM BR SCT002 OVC005
     FM051200 03007KT P6SM OVC005
     FM051300 04007KT P6SM BKN012
     FM051400 05008KT P6SM BKN025
     FM051600 04012KT P6SM BKN040
     FM052300 02008KT P6SM BKN040
     FM060300 35004KT P6SM BKN040=

USA.gov is the U.S. government's official web portal to all federal, state and local government web resources and services.